User: anonymous   Login
Location: Newark
(40.7360°N, 74.1730°W)
Time: 12:14:01
(UTC-05:00)
Language:

ISS - Orbit

View from above orbital plane
View from above orbital plane
View from above satellite
View from above satellite

Ground track
Ground track

The orbit data is extracted from the following two-line orbital elements,

1 25544U 98067A   16038.50167945  .00016717  00000-0  10270-3 0  9024
2 25544  51.6409 349.7535 0006561  85.8019 274.3884 15.54482572 24658
Epoch (UTC): 07 February 2016 12:02:25
Eccentricity: 0.0006561
inclination: 51.6409°
perigee height: 399 km
apogee height: 408 km
right ascension of ascending node: 349.7535°
argument of perigee: 85.8019°
revolutions per day: 15.54482572
mean anomaly at epoch: 274.3884°
orbit number at epoch: 2465

The dashed part of the orbit path shows where the satellite is in the earth's shadow,  

DLR